Location: Caltech
(34.1382°N, 118.1253°W)
Time: 22:33:49
(UTC-07:00)

SL-16 R/B - Visible Passes

Search period start: 28 April 2017 00:00
Search period end: 08 May 2017 00:00
Orbit: 842 x 846 km, 71.0° (Epoch: 27 April)

Date Brightness Start Highest point End Pass type
(mag) Time Alt. Az. Time Alt. Az. Time Alt. Az.
28 Apr 4.4 05:27:30 10° N 05:32:30 31° ENE 05:37:28 10° ESE visible
28 Apr 2.7 20:14:40 10° SSW 20:20:17 68° WNW 20:25:57 10° NNE visible
29 Apr 4.4 05:13:17 10° N 05:18:13 30° ENE 05:23:08 10° ESE visible
29 Apr 2.6 20:00:23 10° SSW 20:06:01 71° WNW 20:11:42 10° NNE visible
30 Apr 4.5 04:59:03 10° N 05:03:56 29° ENE 05:08:47 10° ESE visible
01 May 4.5 04:44:51 10° N 04:49:39 28° ENE 04:54:26 10° ESE visible
02 May 4.5 04:30:38 10° N 04:35:22 27° ENE 04:40:05 10° ESE visible
02 May 5.9 21:07:59 10° NW 21:08:12 10° NW 21:08:26 10° NW visible
03 May 4.5 04:16:25 10° N 04:21:05 26° ENE 04:25:43 10° ESE visible
03 May 5.8 20:52:49 10° WNW 20:53:54 10° NW 20:55:00 10° NW visible
04 May 4.5 04:02:13 10° N 04:06:49 25° ENE 04:11:22 10° ESE visible
04 May 5.8 20:38:05 10° WNW 20:39:35 11° NW 20:41:07 10° NW visible
05 May 4.5 03:48:00 10° N 03:52:31 24° ENE 03:57:00 10° ESE visible
05 May 2.6 05:31:26 10° NW 05:36:43 41° WSW 05:41:58 10° S visible
05 May 5.7 20:23:27 10° WNW 20:25:17 11° NW 20:27:09 10° NNW visible
06 May 4.5 03:33:48 10° N 03:38:14 23° ENE 03:42:37 10° ESE visible
06 May 2.5 05:17:08 10° NW 05:22:28 43° WSW 05:27:45 10° S visible
06 May 5.6 20:08:51 10° WNW 20:10:59 12° NW 20:13:07 10° NNW visible
07 May 4.5 03:19:36 10° N 03:23:56 22° ENE 03:28:15 10° ESE visible
07 May 2.5 05:02:50 10° NW 05:08:13 45° WSW 05:13:33 10° S visible
